Flag for U.S.A. Weather past 2 weeks in Clovis, New Mexico, U.S.A.

Now
57 °F

Sunny.


Feels Like: 54 °F
Forecast: 35 / 54 °F
Wind: 14 mph from Southwest

Location: Cannon Air Force Base / Clovis

Current Time: Mar 3, 2015 at 4:39:00 PM

Latest Report: Mar 3, 2015 at 3:58 PM


Visibility: 10 mi

Pressure: 29.73 "Hg

Humidity: 59%

Dew point: 43 °F

Location of ClovisLocation

Historic Weather in Clovis — Graph

°F

Clovis temperature yesterday

Maximum temperature yesterday: 37 °F (at 4:01 PM)
Minimum temperature yesterday: 28 °F (at 5:58 AM)
Average temperature yesterday: 32 °F

Past Weeks' High & Low Weather Summary

 TemperatureHumidityPressure
High72 °F (Feb 19, 2:58 PM)100% (Feb 28, 1:59 PM)30.74 "Hg (Feb 28, 1:59 PM)
Low10 °F (Feb 23, 6:03 AM)9% (Feb 19, 4:58 PM)29.57 "Hg (Feb 20, 4:58 PM)
Average32 °F74%30.14 "Hg
* Reported Feb 16 2:58 PM — Mar 3 2:58 PM, Clovis, Weather by CustomWeather, © 2015

Note: Actual official high and low records may vary slightly from our data, if they occured in-between our weather recording intervals... More about our weather records

Advertising

Clovis weather history for previous 24 hours

 ConditionsComfort  
Time TempWeatherWind HumidityBarometerVisibility
2:58 PM
Tue, Mar 3
57 °FPassing clouds.14 mph57%29.74 "Hg10 mi
1:58 PM53 °FBroken clouds.8 mph60%29.76 "Hg10 mi
12:58 PM51 °FScattered clouds.9 mph67%29.81 "Hg10 mi
11:58 AM50 °FPassing clouds.10 mph66%29.85 "Hg10 mi
10:58 AM47 °FScattered clouds.8 mph68%29.86 "Hg10 mi
9:58 AM45 °FPassing clouds.10 mph74%29.85 "Hg10 mi
8:58 AM42 °FPassing clouds.7 mph85%29.89 "Hg10 mi
7:58 AM37 °FSunny.5 mph97%29.89 "Hg10 mi
6:58 AM35 °FSunny.8 mph97%29.90 "Hg10 mi
5:58 AM34 °FFog.6 mph99%29.90 "Hg6 mi
4:58 AM35 °FClear.8 mph97%29.87 "Hg9 mi
3:58 AM34 °FClear.8 mph96%29.87 "Hg10 mi
2:58 AM33 °FPassing clouds.10 mph97%29.87 "Hg10 mi
1:58 AM32 °FClear.6 mph99%29.89 "Hg7 mi
12:58 AM32 °FIce fog.5 mph99%29.91 "Hg6 mi
11:58 PM
Mon, Mar 2
33 °FClear.8 mph98%29.92 "Hg8 mi
10:58 PM34 °FClear.9 mph97%29.94 "Hg10 mi
9:58 PM34 °FPassing clouds.10 mph97%29.97 "Hg10 mi
8:58 PM35 °FPassing clouds.13 mph97%29.99 "Hg10 mi
7:58 PM35 °FClear.8 mph97%30.01 "Hg10 mi
6:58 PM35 °FPartly cloudy.9 mph97%30.00 "Hg10 mi
5:58 PM36 °FLow clouds.10 mph93%30.02 "Hg10 mi
4:58 PM36 °FLow clouds.13 mph93%30.02 "Hg10 mi
4:01 PM37 °FLow clouds.10 mph87%30.00 "Hg10 mi
Weather by CustomWeather, © 2015

See weather overviewHow to use our weather pages